FENGYUN 1C DEB

Satellite information

Favourite Embed

Satellite Type and Status

DEBRISIN ORBIT

Key statistics

Satellite FENGYUN 1C DEB at a glance.

Uptime

9715

Days in orbit

Revolutions

≈ 14.0

Per day

Orbit

SSO

Sun Synchronous Orbit

Inclination

98.8

Latest

Satellite identification and parameters

Extended collection of information and parameters for FENGYUN 1C DEB.

Object identification

Identified? True

Debris? True

Object name: FENGYUN 1C DEB

International designator: 1999-025YR

Object number (NORAD): 30280

Object ID (CCSDS): 30280

Country: PEOPLES REPUBLIC OF CHINA (PRC)

Current information (Y/N): Y

RCS size: SMALL

Orbital parameters

Period: 102.98 minutes

Inclination: 98.7752 deg

SMA: 7277.72 km

Apoapsis: 958.148 km

Periapsis: 841.022 km

RAAN: 336.3238 deg

Eccentricy: 0.00804687

Argument of periapsis: 329.0266 deg

Mean anomaly: 84.2381 deg

Mean motion: 13.98330294 rev/day

Mean motion (dot): 0.00000203 rev/day2

B* drag term: 0.00016701529 1/REarth

Two-line elements (TLE)

Creation date: Dec. 13, 2025, 4:32 a.m.

Reference frame: TEME

Reference center: EARTH

Epoch: Dec. 12, 2025, 10:37 p.m. UTC

TLE line 0: 0 FENGYUN 1C DEB

TLE line 1: 1 30280U 99025YR 25346.94285376 .00000203 00000-0 16702-3 0 9996

TLE line 2: 2 30280 98.7752 336.3238 0080469 329.0266 84.2381 13.98330294964092

Live tracking on map

Real-time ground track for satellite FENGYUN 1C DEB.

In-orbit conjunctions

A list of the most updated potential collisions computed for object FENGYUN 1C DEB.

Target Orbit TCA Probability of collision Miss distance Type
FENGYUN 1C DEB SSO 2024-11-17 21:20:50 0.0002432688 36.0 (m) DEBRIS
COSMOS 1275 DEB LEO 2024-10-24 08:22:08 0.000324069 66.0 (m) DEBRIS
CZ-4B R/B SSO 2024-07-18 01:19:29 0.001511454 229.0 (m) ROCKET BODY

Associated space launch

Chinese polar orbiting meteorological satellite

FENGYUN 1C DEB was lifted into orbit during the mission ‘Long March 4B | Feng Yun 1C’, on board a Long March 4B space rocket.

The launch took place on May 10, 1999, 1:33 a.m. from Launch Complex 7.

For more information about the launch, click the button.

Launch to space Long March 4B | Feng Yun 1C
Long March 4B | Feng Yun 1C

Agency: N/A

Status: Launch Successful

Launch date: May 10, 1999, 1:33 a.m. UTC

Rocket: Long March 4B

Launch pad: Launch Complex 7

Location: Taiyuan Satellite Launch Center, People's Republic of China

...

Latest news about this satellite

There are no fresh news available about this satellite. Check back as we update our databases every day.


Newsletter sign-up

Weekly statistics, charts and insights to help you stay on top of the space industry.